Weather observations for the past three days for
Kosrae Island - Kosrae Airport
| Date | Time (+11) | Wind (kph) | Vis. (km) | Weather | Sky Cond. | Temperature (ºC) | Relative Humidity | Wind Chill (°C) | Heat Index (°C) | Pressure | Precipitation (cm) | ||||||
|---|---|---|---|---|---|---|---|---|---|---|---|---|---|---|---|---|---|
| Air | Dwpt | 6 hour | altimeter (cm) | sea level (mb) | 1 hr | 3 hr | 6 hr | ||||||||||
| Max. | Min. | ||||||||||||||||
| 05 | 12:50 | E 6 | 16.09 | Light Showers Rain | BKN013TCU BKN120 OVC290 | 28 | 25 | 84% | 33 | 75.64 | 0.0 | ||||||
| 05 | 11:50 | E 13 | 16.09 | Overcast | BKN014TCU BKN120 OVC290 | 27 | 25 | 89% | 31 | 75.67 | 0.0 | ||||||
| 05 | 10:59 | SE 7 | 16.09 | Showers in Vicinity | BKN015TCU BKN120 OVC290 | 27 | 25 | 89% | 31 | 75.67 | 0.0 | ||||||
| 05 | 09:50 | E 9 | 16.09 | Overcast | BKN013TCU BKN120 OVC280 | 25 | 24 | 94% | 26 | 75.72 | 0.0 | ||||||
| 05 | 08:55 | E 11 | 6.44 | Light Showers Rain | BKN008TCU BKN120 OVC280 | 25 | 24 | 94% | 26 | 75.72 | 0.0 | ||||||
| 04 | 17:58 | E 11 | 16.09 | Overcast | BKN015TCU BKN130 OVC300 | 29 | 25 | 79% | 35 | 75.46 | 0.0 | ||||||
| 04 | 16:50 | E 11 | 16.09 | Showers in Vicinity | BKN014TCU BKN130 OVC300 | 30 | 26 | 79% | 37 | 75.44 | 0.0 | ||||||
| 04 | 15:56 | E 11 | 16.09 | Mostly Cloudy | BKN016TCU BKN130 BKN300 | 29 | 25 | 79% | 35 | 75.44 | 0.0 | ||||||
| 04 | 14:50 | E 13 | 16.09 | Showers in Vicinity | BKN016TCU BKN130 BKN300 | 31 | 25 | 70% | 38 | 75.46 | 0.0 | ||||||
| 04 | 13:50 | E 15 | 16.09 | Mostly Cloudy | BKN019TCU BKN130 BKN300 | 30 | 25 | 75% | 36 | 75.46 | 0.0 | ||||||
| 04 | 12:50 | E 19 | 16.09 | Mostly Cloudy | BKN018TCU BKN130 BKN300 | 31 | 25 | 70% | 38 | 75.49 | 0.0 | ||||||
| 04 | 11:50 | NE 15 | 16.09 | Mostly Cloudy | BKN018TCU BKN130 BKN300 | 31 | 25 | 70% | 38 | 75.59 | 0.0 | ||||||
| 04 | 10:50 | NE 17 | 16.09 | Showers in Vicinity | BKN015TCU BKN130 OVC300 | 31 | 25 | 70% | 38 | 75.62 | 0.0 | ||||||
| 04 | 09:50 | NE 15 | 16.09 | Mostly Cloudy | BKN016TCU BKN130 BKN300 | 30 | 26 | 79% | 37 | 75.62 | 0.0 | ||||||
| 04 | 08:50 | NE 20 | 16.09 | Mostly Cloudy | BKN017 BKN130 BKN300 | 30 | 26 | 79% | 37 | 75.62 | 0.0 | ||||||
| 03 | 09:51 | NE 13 | 16.09 | Mostly Cloudy | SCT019TCU BKN130 BKN300 | 30 | 25 | 75% | 36 | 75.72 | 0.0 | ||||||
| 03 | 08:53 | NE 13 | 16.09 | Mostly Cloudy | BKN018TCU BKN130 BKN300 | 29 | 25 | 79% | 35 | 75.72 | 0.0 | ||||||
| 03 | 07:50 | NE 11 | 16.09 | Mostly Cloudy | BKN018TCU BKN130 BKN300 | 28 | 25 | 84% | 33 | 75.67 | 0.0 | ||||||
| 02 | 17:50 | N 7 | 16.09 | Overcast | SCT017 BKN130 OVC300 | 29 | 25 | 79% | 35 | 75.57 | 0.0 | ||||||
| 02 | 16:50 | NW 9 | 16.09 | Mostly Cloudy | SCT016 BKN130 BKN300 | 29 | 25 | 79% | 35 | 75.51 | 0.0 | ||||||
| 02 | 15:50 | Vrbl 6 | 16.09 | Mostly Cloudy | SCT016 BKN130 BKN300 | 29 | 25 | 79% | 35 | 75.51 | 0.0 | ||||||
| 02 | 14:50 | Vrbl 6 | 16.09 | Mostly Cloudy | BKN018 BKN130 BKN300 | 28 | 24 | 79% | 32 | 75.51 | 0.0 | ||||||
| 02 | 13:50 | Vrbl 6 | 16.09 | Mostly Cloudy | BKN018 BKN130 BKN300 | 28 | 24 | 79% | 32 | 75.54 | 0.0 | ||||||
| Date | Time (+11) | Wind (kph) | Vis. (km) | Weather | Sky Cond. | Air | Dwpt | Max. | Min. | Relative Humidity | Wind Chill (°C) | Heat Index (°C) | altimeter (cm) | sea level (mb) | 1 hr | 3 hr | 6 hr |
| 6 hour | |||||||||||||||||
| Temperature (ºC) | Pressure | Precipitation (cm) | |||||||||||||||